Dewpoint
-2 -2 -1 -4 -3 -1 -1 0 -2 -4 -3 -2 -2 -5 -8 -8 -7 -3 -2 -2 -3 4 5 7 7 7 5 8 9 10 10 10 10 9 9 9 9 10 10 10 9 8 8 6
2 2 -0 -1 -0 -1 -0 -0 -1 -3 -3 -2 -3 -5 -7 -8 -7 -6 -2 -3 -3 3 6 7 7 7 6 6 10 10 10 9 9 9 9 8 8 8 9 9 9 8 7 6
3 3 0 1 2 2 1 -0 -2 -1 -2 -3 -3 -4 -6 -7 -7 -8 -6 -3 -3 2 6 7 7 6 6 6 9 10 10 9 9 9 9 9 8 9 9 9 9 9 7 8
5 3 2 0 1 0 4 0 -2 -2 -1 2 -1 1 -4 -6 -6 -7 -9 -6 -2 1 5 6 6 6 6 6 9 9 9 9 9 9 10 9 9 9 9 9 9 9 8 8
4 5 5 6 2 0 4 2 1 2 4 4 2 -0 -3 -4 -3 -5 -8 -9 -4 -1 4 6 6 6 6 6 8 10 9 8 9 9 9 9 9 9 9 9 8 8 8 6
4 3 4 3 1 2 2 4 4 4 5 7 2 -0 -1 -3 -4 -4 -7 -9 -6 -6 5 5 6 6 6 7 8 9 9 8 8 9 9 9 8 8 8 8 8 6 6 5
2 2 1 3 5 2 2 6 9 8 6 6 0 1 -1 -3 -3 -4 -5 -7 -6 -5 4 6 6 7 7 7 7 8 9 8 8 9 9 9 8 8 8 7 7 6 6 5
2 4 0 1 2 1 2 6 8 10 10 6 2 2 -1 -4 -5 -5 -7 -6 -7 -3 4 5 6 6 7 7 7 7 8 8 8 8 9 9 8 8 8 7 7 6 5 3
-1 2 -1 1 -1 -0 6 5 2 7 5 8 6 2 -3 -4 -4 -5 -6 -7 -3 -2 4 5 6 6 7 7 7 6 7 7 8 8 9 9 9 8 8 7 7 7 5 5
-2 0 -3 -0 -0 0 5 2 7 8 10 10 6 6 1 2 -3 -4 -3 -4 -4 -1 -1 5 5 6 6 6 6 6 6 6 7 8 8 9 8 9 9 8 7 7 6 5
-0 1 0 -2 1 1 3 7 7 7 7 8 10 9 3 1 0 0 -0 -1 -1 -0 1 1 5 6 6 6 6 6 6 6 8 7 8 9 9 9 8 8 8 8 7 6
-0 3 4 1 1 2 2 3 6 9 9 6 5 7 2 -1 -1 -0 -0 -1 -0 1 2 3 3 6 6 6 6 6 6 7 7 7 8 8 9 9 9 8 8 8 8 8
-1 3 5 2 1 2 3 2 3 6 7 10 10 6 2 1 0 -1 -1 0 2 2 2 3 6 8 7 6 6 6 6 7 7 7 7 8 8 8 9 9 8 8 8 8
-0 2 4 6 6 4 5 5 4 6 9 9 9 8 7 5 6 -0 0 2 3 3 5 5 5 6 7 8 8 7 7 7 7 7 6 7 8 7 6 7 9 8 9 9
3 5 4 4 2 3 4 5 4 6 7 10 7 7 5 6 6 3 3 3 4 4 5 5 7 6 6 6 6 8 9 8 8 8 7 7 7 7 8 8 7 9 9 9
1 5 4 3 4 4 5 4 1 2 6 8 7 7 6 5 5 5 3 3 4 4 4 6 5 4 3 4 5 5 5 6 8 8 8 8 7 7 8 8 8 8 7 9
3 3 4 5 5 5 5 3 2 3 6 5 8 6 5 5 5 3 3 3 4 4 5 5 5 4 2 3 4 4 4 5 4 6 9 9 7 8 7 7 8 9 8 8
2 2 3 5 5 7 3 0 1 2 4 4 5 6 6 6 5 3 3 3 3 3 4 4 3 2 2 2 2 3 4 5 6 6 5 8 9 9 8 8 7 8 9 9
-1 1 3 4 6 4 2 -1 -2 5 6 3 4 2 5 4 4 2 1 1 1 2 3 3 2 2 2 2 3 3 4 5 6 6 7 6 5 7 9 9 8 8 8 9
-3 -0 1 4 4 7 2 -1 -3 3 7 3 3 4 5 4 6 3 1 1 0 0 1 1 1 1 1 1 2 2 3 5 5 6 7 7 6 6 7 8 10 9 9 9
0 1 2 2 4 4 1 -1 -2 5 7 4 3 3 3 3 2 1 0 -0 -0 -1 -1 -0 0 1 1 1 1 1 2 2 3 4 5 6 7 7 7 7 8 9 10 9
4 2 3 2 3 4 -1 0 5 4 3 3 3 3 2 2 1 0 -0 -1 -1 -2 -2 -1 -0 -0 -0 0 1 1 1 1 1 2 3 4 4 5 6 7 8 8 9 9
5 1 3 1 1 2 3 4 3 3 2 1 1 1 1 1 -0 -0 -1 -2 -2 -1 -1 -1 -1 -1 -1 -0 0 -0 -0 -0 0 1 1 1 1 2 4 6 6 5 4 4
3 2 3 1 -3 3 3 2 1 0 -0 -0 -0 -0 -0 -1 -1 -2 -3 -3 -3 -2 -2 -2 -1 -2 -1 -1 -1 -1 -1 -1 -1 -1 -1 -2 -2 -1 -0 1 2 1 -1 -1
3 3 2 3 4 4 3 0 -1 -1 -1 -1 -2 -2 -2 -2 -2 -3 -3 -3 -4 -4 -4 -4 -4 -4 -4 -3 -3 -2 -2 -3 -2 -2 -2 -3 -3 -3 -3 -3 -3 -2 -2 -3
2 4 4 5 3 2 2 0 -1 -2 -2 -2 -3 -3 -3 -3 -3 -4 -4 -5 -5 -6 -6 -6 -6 -6 -6 -6 -5 -4 -4 -4 -4 -4 -5 -5 -5 -5 -5 -6 -7 -6 -6 -5
Wind_Speed
8 4 6 6 8 12 16 15 13 11 12 13 20 23 14 17 14 13 23 25 21 37 32 29 28 21 15 15 16 16 19 19 18 15 19 21 21 22 32 38 40 40 40 37
4 7 7 9 12 16 18 18 17 16 16 12 19 17 10 7 8 17 26 29 29 34 35 35 30 24 19 19 20 19 20 21 21 16 17 17 20 24 31 34 42 43 42 40
7 6 10 13 10 17 18 15 16 15 19 21 18 15 4 6 9 19 18 37 35 34 40 38 33 28 22 22 24 20 21 21 21 19 18 16 15 18 27 29 42 46 48 40
3 5 11 13 17 13 13 17 13 15 12 11 17 10 7 9 16 15 18 21 38 32 42 40 36 32 26 24 24 22 20 22 20 23 22 21 25 32 32 31 43 44 48 41
4 5 10 14 17 9 9 16 9 9 10 12 19 5 6 9 8 16 15 24 32 34 45 44 40 34 27 23 24 23 17 21 24 23 24 24 25 31 34 35 42 45 48 42
6 7 3 11 10 9 14 13 10 8 3 5 12 7 6 8 11 7 7 26 35 33 45 43 39 33 26 23 23 24 22 17 27 27 29 27 27 31 38 40 45 49 49 45
7 16 8 8 8 11 10 3 2 2 4 3 8 12 13 11 13 12 4 17 24 35 39 42 39 35 31 27 25 26 24 22 23 31 32 30 28 32 39 42 44 47 44 44
4 4 11 12 14 8 12 10 3 6 3 2 8 6 9 15 19 17 10 10 13 28 38 41 39 37 34 29 24 24 25 23 22 30 35 34 31 32 38 40 43 44 45 47
3 5 7 10 8 10 5 7 16 6 6 1 5 7 22 15 16 7 8 10 17 30 36 39 39 38 35 31 28 25 25 25 24 25 33 36 36 37 37 38 40 45 46 46
4 8 7 11 16 14 7 3 4 4 3 4 5 11 2 10 7 5 6 7 11 23 28 37 40 39 36 31 27 26 23 25 24 24 29 35 36 36 36 36 36 39 48 48
3 3 7 5 8 11 7 5 5 3 7 2 2 4 3 10 15 13 14 23 25 29 24 29 38 39 36 32 28 25 23 24 26 26 27 32 36 36 38 39 39 39 39 48
4 4 5 11 9 3 4 11 12 2 1 4 2 5 6 6 11 13 12 20 32 36 40 7 30 36 34 32 28 26 24 23 24 23 26 26 33 38 40 42 42 39 40 42
1 3 4 7 3 5 7 17 10 11 6 4 1 4 8 11 10 15 15 27 30 34 37 40 24 11 31 28 25 25 23 22 22 24 26 27 28 34 41 43 42 42 43 42
4 3 5 5 9 4 6 9 14 14 3 3 6 1 5 8 10 11 15 21 27 30 34 33 36 27 14 7 13 23 23 22 22 23 26 30 30 30 30 37 44 44 44 45
3 2 3 10 14 15 12 10 13 15 15 4 6 7 5 6 9 9 20 24 26 27 31 29 29 24 23 17 10 7 5 26 27 27 29 29 30 31 30 30 33 41 46 46
3 3 3 7 7 11 11 13 9 11 11 16 14 7 1 10 7 14 16 23 24 26 28 27 25 26 25 21 16 13 12 12 6 35 35 30 32 33 34 34 33 34 40 44
2 4 4 3 6 9 5 7 11 9 11 8 7 5 9 8 6 12 20 22 25 26 27 22 24 23 22 23 22 19 16 13 9 7 18 30 37 35 37 38 38 38 38 40
5 1 2 4 5 3 4 17 8 9 6 7 1 3 14 19 10 23 26 28 27 29 22 18 18 18 21 20 18 18 17 17 14 12 12 7 20 30 35 43 42 43 43 43
8 5 1 2 3 10 11 6 3 13 4 5 5 13 22 23 26 23 28 27 23 21 18 14 16 17 17 18 19 20 20 19 18 17 19 20 17 15 23 29 44 44 45 47
12 6 4 3 3 3 3 13 3 6 4 4 12 14 15 15 11 8 23 24 18 16 14 13 15 16 18 21 20 19 20 21 22 22 22 24 26 23 21 20 35 41 48 46
7 6 13 7 4 6 7 7 12 2 3 10 19 21 20 16 14 21 21 22 17 15 15 12 15 18 19 20 20 21 22 23 23 24 24 25 27 27 20 20 19 28 32 40
9 8 7 5 5 8 7 2 4 7 20 21 24 22 25 26 26 22 15 13 12 13 16 17 20 22 22 22 21 21 21 22 22 23 23 24 24 23 24 16 12 12 16 26
2 3 5 10 6 3 13 21 22 25 25 23 25 23 24 25 20 13 12 11 14 16 18 19 20 20 21 22 22 21 21 20 19 19 20 22 22 21 18 12 6 3 2 7
3 9 4 4 7 8 19 26 28 28 27 23 20 22 15 19 13 14 13 14 16 17 18 18 18 20 20 21 20 19 18 18 18 18 19 20 22 21 19 16 11 9 13 10
3 7 7 5 10 26 18 19 31 29 26 20 16 17 14 9 13 12 14 14 14 14 15 16 18 19 20 19 19 19 18 17 18 18 19 20 23 27 29 29 30 27 25 21
11 4 2 3 6 20 14 22 21 21 19 19 12 13 11 8 11 10 14 14 14 15 16 17 18 18 19 19 18 17 16 15 16 19 20 20 21 23 26 29 33 33 31 30
Wind_Direction
211 207 233 259 254 265 272 275 263 271 285 313 282 270 234 220 220 210 190 200 216 190 194 193 201 207 215 221 212 197 201 204 194 195 189 188 192 196 194 189 183 182 181 178
243 232 247 265 293 292 258 264 271 288 290 283 303 292 220 211 215 217 208 206 214 189 183 186 194 199 212 217 215 199 208 204 194 198 202 198 197 203 203 202 208 193 185 184
238 206 235 227 255 277 288 250 266 274 298 310 293 285 249 267 278 275 232 211 210 188 176 181 189 197 205 215 218 215 202 201 198 196 203 196 187 201 205 206 197 194 186 184
290 319 242 196 225 246 289 284 256 264 281 281 302 286 277 252 251 249 253 205 201 181 182 185 189 194 206 212 216 224 208 205 209 203 208 203 187 192 203 215 203 186 183 188
236 264 278 235 233 245 267 315 348 333 324 313 297 271 266 278 269 235 239 226 182 184 184 188 194 201 199 211 211 219 220 202 206 205 210 204 197 197 204 196 186 190 191 195
255 155 188 234 249 268 271 332 328 310 287 262 273 280 263 253 262 291 238 215 197 196 184 191 194 194 193 203 210 219 217 216 203 206 206 207 200 192 186 184 189 191 197 204
250 237 183 171 247 277 274 291 1 346 234 220 267 270 249 269 262 257 308 161 182 204 177 180 184 187 189 201 207 216 220 214 202 201 209 206 207 203 198 196 193 194 198 203
254 314 180 189 217 226 224 191 183 185 262 332 258 245 241 242 240 253 106 102 164 171 170 181 187 189 193 201 211 218 222 215 211 199 205 204 205 210 206 205 209 209 205 205
294 247 183 199 219 181 230 231 227 340 244 257 258 263 264 272 242 165 123 112 146 159 166 179 187 191 195 200 207 215 225 220 218 209 207 208 208 211 215 217 220 220 214 211
282 284 275 181 215 175 188 92 145 174 234 207 247 242 215 350 147 159 96 108 122 164 178 180 187 191 198 203 208 212 222 224 222 213 212 210 214 213 218 221 223 223 221 219
339 253 281 341 220 201 173 213 190 197 257 301 282 297 273 34 42 66 61 57 58 45 29 188 188 190 197 200 205 210 220 222 226 222 219 215 216 217 218 224 225 226 229 227
57 296 257 251 173 225 331 202 185 217 202 249 198 265 15 35 51 49 39 52 57 49 39 126 178 185 192 197 202 210 218 224 231 235 231 228 221 221 222 226 229 228 232 233
273 323 294 320 137 170 196 248 199 220 264 251 303 273 346 37 26 28 35 56 61 56 49 56 75 138 183 194 206 211 217 225 237 239 241 238 239 229 227 227 227 231 231 234
146 189 247 282 309 307 267 276 221 210 211 196 243 333 312 339 342 360 21 68 66 62 60 56 59 63 80 74 205 214 220 224 230 242 248 245 245 245 243 235 231 232 233 235
94 228 297 302 294 278 247 243 246 208 218 239 290 217 252 298 329 8 54 55 55 56 56 49 48 47 46 54 73 74 215 230 231 235 239 251 256 251 251 251 245 237 235 238
352 271 275 291 337 328 303 279 228 215 180 229 245 146 249 239 252 77 83 68 57 51 46 45 46 39 35 24 21 14 15 38 308 237 237 247 250 255 254 249 249 249 244 242
311 343 349 270 342 316 281 254 219 192 208 217 249 117 179 94 110 85 73 74 70 57 48 38 30 23 20 17 18 17 4 343 331 14 240 240 246 250 256 257 252 247 249 248
175 152 324 287 325 255 299 313 167 236 130 167 254 196 91 114 92 71 68 75 69 62 48 33 22 21 16 12 9 5 359 356 342 316 307 305 236 234 243 251 253 256 251 248
200 177 241 240 320 298 304 312 5 140 77 0 136 48 127 116 81 60 73 72 69 70 58 34 18 17 16 16 11 5 1 356 348 334 320 308 307 299 262 244 252 254 248 245
200 182 168 155 211 272 305 337 9 94 102 313 83 79 124 135 95 76 71 70 61 57 52 23 16 14 15 15 12 7 4 357 353 349 342 327 310 306 307 277 243 245 252 249
199 192 217 218 246 260 275 311 334 271 125 93 86 92 88 86 97 91 81 75 64 54 55 26 19 20 17 12 12 11 8 7 2 354 346 337 331 311 303 303 292 251 241 241
199 193 202 205 214 264 192 91 30 115 98 85 71 85 86 85 89 90 88 74 61 45 35 25 22 23 20 16 14 14 14 12 6 2 353 346 340 333 313 302 304 283 242 226
264 211 175 185 207 342 52 105 106 97 95 82 84 79 97 87 95 88 71 50 38 28 25 20 20 22 23 23 22 22 20 14 14 11 10 9 4 353 339 316 306 318 279 197
254 253 254 155 240 124 91 93 91 92 84 90 92 83 86 87 85 77 60 44 34 26 24 25 24 29 27 26 23 27 27 24 21 29 34 39 40 39 43 33 20 46 51 45
232 318 223 110 70 74 60 78 97 91 86 82 83 88 82 75 69 61 55 47 46 46 44 43 43 42 40 36 33 32 37 43 47 47 49 53 59 62 64 68 69 72 73 65
340 291 51 63 94 99 82 73 75 96 102 98 93 94 90 86 82 67 66 64 63 63 65 62 61 60 58 53 51 48 48 49 53 57 58 60 63 68 74 79 83 87 90 92
Height
1448 1453 1454 1451 1449 1447 1444 1440 1438 1432 1426 1435 1427 1416 1409 1405 1406 1410 1409 1411 1414 1417 1422 1427 1430 1433 1438 1441 1445 1449 1452 1455 1457 1459 1461 1464 1466 1469 1474 1479 1483 1487 1491 1496
1450 1451 1447 1446 1449 1452 1442 1441 1438 1427 1422 1430 1417 1406 1399 1398 1401 1402 1403 1405 1408 1413 1418 1422 1426 1429 1432 1436 1441 1446 1448 1452 1455 1458 1460 1462 1464 1467 1472 1477 1480 1484 1490 1496
1443 1443 1443 1446 1453 1454 1445 1438 1435 1433 1422 1419 1420 1411 1400 1395 1394 1394 1397 1397 1402 1405 1411 1417 1421 1424 1428 1432 1436 1441 1445 1449 1453 1457 1458 1460 1463 1466 1469 1473 1477 1481 1488 1495
1444 1441 1442 1446 1447 1449 1450 1431 1425 1426 1428 1443 1418 1433 1406 1395 1393 1390 1389 1391 1394 1400 1405 1409 1415 1420 1422 1428 1433 1437 1442 1446 1451 1454 1456 1458 1460 1463 1468 1471 1474 1481 1488 1494
1441 1442 1442 1443 1440 1445 1447 1435 1430 1431 1436 1438 1420 1427 1410 1395 1394 1388 1384 1384 1387 1392 1396 1402 1408 1414 1418 1423 1429 1434 1439 1442 1447 1450 1453 1456 1460 1462 1465 1469 1475 1481 1488 1492
1437 1440 1440 1436 1439 1444 1441 1437 1432 1433 1437 1447 1423 1424 1413 1398 1387 1379 1376 1376 1379 1385 1391 1396 1404 1411 1416 1420 1425 1430 1435 1438 1442 1446 1449 1453 1456 1460 1464 1467 1473 1478 1484 1489
1432 1430 1432 1437 1444 1438 1439 1450 1447 1446 1444 1442 1412 1417 1402 1386 1377 1376 1367 1366 1376 1381 1386 1394 1402 1408 1413 1415 1420 1427 1431 1434 1437 1441 1445 1449 1454 1457 1461 1464 1468 1474 1479 1482
1433 1435 1424 1428 1435 1433 1435 1445 1445 1447 1447 1429 1408 1414 1393 1373 1372 1374 1369 1370 1372 1376 1383 1391 1397 1402 1407 1411 1416 1421 1427 1430 1433 1437 1441 1446 1451 1455 1459 1463 1467 1471 1474 1479
1429 1426 1419 1423 1421 1426 1437 1440 1437 1454 1442 1447 1422 1396 1377 1371 1368 1369 1368 1370 1375 1378 1382 1388 1394 1398 1402 1406 1412 1417 1422 1427 1429 1432 1437 1442 1447 1450 1453 1458 1463 1466 1470 1474
1425 1429 1412 1415 1421 1422 1434 1436 1451 1457 1446 1443 1412 1402 1396 1384 1367 1367 1370 1373 1375 1379 1382 1384 1388 1393 1397 1402 1408 1415 1419 1422 1426 1430 1433 1437 1442 1447 1451 1454 1457 1460 1465 1469
1426 1428 1422 1415 1419 1420 1428 1439 1445 1443 1435 1429 1427 1410 1390 1384 1378 1375 1377 1377 1379 1380 1380 1381 1384 1390 1396 1401 1406 1412 1417 1420 1424 1428 1430 1433 1437 1441 1446 1448 1452 1456 1460 1463
1431 1433 1427 1418 1413 1417 1418 1421 1435 1440 1432 1421 1423 1415 1385 1387 1380 1380 1382 1382 1381 1384 1384 1380 1383 1390 1395 1400 1405 1409 1414 1417 1421 1425 1429 1430 1433 1436 1438 1441 1445 1450 1452 1456
1431 1433 1430 1418 1411 1413 1419 1417 1419 1431 1433 1430 1428 1412 1390 1391 1390 1386 1386 1388 1389 1391 1392 1390 1393 1399 1397 1400 1403 1406 1411 1414 1418 1421 1425 1428 1429 1430 1432 1435 1438 1441 1445 1447
1429 1432 1433 1431 1424 1420 1422 1415 1415 1424 1431 1425 1420 1408 1405 1402 1403 1396 1395 1397 1395 1396 1398 1401 1401 1405 1408 1411 1413 1409 1408 1411 1413 1414 1416 1419 1422 1424 1426 1429 1432 1434 1436 1439
1431 1437 1430 1428 1421 1413 1410 1418 1408 1416 1422 1422 1408 1407 1404 1406 1404 1406 1404 1401 1400 1400 1399 1403 1405 1409 1410 1411 1413 1414 1414 1416 1412 1410 1410 1410 1412 1416 1421 1423 1425 1427 1429 1431
1431 1435 1429 1423 1416 1413 1405 1399 1391 1393 1406 1416 1411 1410 1410 1404 1408 1409 1408 1404 1405 1406 1405 1408 1407 1409 1410 1412 1412 1412 1412 1413 1414 1413 1411 1407 1409 1410 1410 1414 1418 1419 1419 1422
1434 1432 1434 1427 1418 1415 1410 1395 1389 1390 1404 1407 1411 1405 1405 1410 1416 1412 1409 1409 1411 1411 1409 1411 1410 1411 1412 1412 1410 1409 1408 1409 1409 1410 1408 1411 1411 1405 1404 1404 1406 1409 1412 1415
1432 1434 1434 1434 1422 1417 1391 1386 1380 1389 1393 1399 1399 1404 1402 1405 1415 1412 1413 1412 1413 1413 1414 1416 1416 1414 1412 1411 1410 1408 1406 1404 1404 1404 1403 1403 1403 1402 1404 1402 1399 1398 1400 1402
1424 1430 1441 1439 1427 1411 1394 1383 1382 1392 1409 1402 1402 1400 1403 1408 1410 1418 1419 1418 1418 1419 1420 1420 1419 1417 1415 1412 1411 1408 1406 1403 1402 1400 1398 1397 1396 1396 1394 1394 1396 1392 1393 1393
1417 1424 1434 1436 1429 1415 1393 1385 1381 1384 1408 1406 1400 1404 1408 1410 1418 1427 1423 1422 1423 1422 1422 1421 1420 1418 1415 1413 1411 1409 1406 1403 1400 1398 1395 1392 1390 1389 1387 1385 1384 1386 1386 1387
1420 1424 1425 1432 1428 1413 1396 1388 1389 1402 1413 1406 1405 1407 1410 1412 1420 1426 1425 1425 1424 1424 1423 1421 1419 1417 1416 1414 1412 1410 1407 1403 1401 1398 1395 1391 1387 1384 1381 1379 1377 1377 1378 1379
1418 1421 1422 1426 1428 1418 1389 1392 1401 1405 1405 1407 1407 1410 1413 1416 1419 1422 1425 1426 1427 1424 1421 1419 1417 1417 1416 1414 1412 1410 1407 1405 1402 1398 1395 1390 1386 1382 1378 1375 1373 1373 1373 1373
1405 1405 1412 1411 1408 1397 1392 1393 1401 1403 1405 1411 1411 1415 1417 1419 1422 1424 1426 1426 1425 1423 1421 1420 1419 1418 1417 1415 1412 1411 1409 1406 1403 1400 1395 1390 1386 1383 1378 1373 1371 1371 1372 1371
1405 1401 1402 1397 1395 1396 1402 1402 1404 1406 1409 1412 1415 1417 1419 1421 1424 1425 1425 1424 1423 1423 1422 1422 1421 1419 1417 1416 1414 1413 1410 1407 1404 1400 1398 1393 1388 1385 1380 1377 1373 1371 1375 1378
1405 1404 1392 1396 1400 1402 1413 1411 1407 1411 1415 1417 1420 1420 1422 1423 1423 1424 1424 1426 1426 1426 1425 1423 1421 1420 1418 1417 1415 1414 1412 1411 1407 1404 1402 1399 1393 1391 1388 1383 1380 1377 1376 1384
1408 1397 1398 1404 1404 1411 1420 1417 1417 1417 1419 1424 1425 1425 1425 1425 1425 1427 1427 1428 1427 1427 1426 1424 1423 1424 1424 1423 1421 1419 1416 1414 1412 1409 1406 1405 1402 1399 1397 1395 1391 1389 1390 1384